SB KEPS @ AMSAT $ORB10301.O Orbital Elements 10301.OSCAR
HR AMSAT ORBITAL ELEMENTS FOR OSCAR SATELLITES FROM WA5QGD FORT WORTH,TX October 28, 2010 BID: ORB10301.O TO ALL RADIO AMATEURS BT
Satellite: AO-07 Catalog number: 07530 Epoch time: 10300.92040442 Element set: 0916 Inclination: 101.3997 deg RA of node: 311.6254 deg Eccentricity: 0.0012253 Arg of perigee: 014.5401 deg Mean anomaly: 345.6017 deg Mean motion: 12.53580038 rev/day Decay rate: -2.7e-07 rev/day^2 Epoch rev: 64508 Checksum: 252
Satellite: FO-29 Catalog number: 24278 Epoch time: 10301.66195490 Element set: 425 Inclination: 098.5182 deg RA of node: 112.3778 deg Eccentricity: 0.0351102 Arg of perigee: 137.5077 deg Mean anomaly: 225.3818 deg Mean motion: 13.52953723 rev/day Decay rate: 2.4e-07 rev/day^2 Epoch rev: 70115 Checksum: 294
Satellite: SO-33 Catalog number: 25509 Epoch time: 10301.54597441 Element set: 824 Inclination: 031.4315 deg RA of node: 114.3559 deg Eccentricity: 0.0352948 Arg of perigee: 015.8890 deg Mean anomaly: 345.2447 deg Mean motion: 14.28335354 rev/day Decay rate: 2.18e-06 rev/day^2 Epoch rev: 62713 Checksum: 299
Satellite: RS-22 Catalog number: 27939 Epoch time: 10301.65619874 Element set: 672 Inclination: 097.8698 deg RA of node: 161.3365 deg Eccentricity: 0.0013717 Arg of perigee: 002.7032 deg Mean anomaly: 357.4242 deg Mean motion: 14.63469045 rev/day Decay rate: 1.83e-06 rev/day^2 Epoch rev: 37847 Checksum: 325
Satellite: VO-52 Catalog number: 28650 Epoch time: 10301.70204233 Element set: 632 Inclination: 097.6762 deg RA of node: 349.8118 deg Eccentricity: 0.0026562 Arg of perigee: 197.3803 deg Mean anomaly: 162.6532 deg Mean motion: 14.81837321 rev/day Decay rate: 4.54e-06 rev/day^2 Epoch rev: 29646 Checksum: 301
Satellite: SO-67 Catalog number: 35870 Epoch time: 10301.67472727 Element set: 236 Inclination: 097.3156 deg RA of node: 347.1675 deg Eccentricity: 0.0003451 Arg of perigee: 019.6355 deg Mean anomaly: 126.6882 deg Mean motion: 15.21143251 rev/day Decay rate: 1.289e-05 rev/day^2 Epoch rev: 6174 Checksum: 305
Satellite: HO-68 Catalog number: 36122 Epoch time: 10301.64238573 Element set: 796 Inclination: 100.4535 deg RA of node: 000.6218 deg Eccentricity: 0.0007783 Arg of perigee: 035.2249 deg Mean anomaly: 324.9379 deg Mean motion: 13.16282371 rev/day Decay rate: -4.5e-07 rev/day^2 Epoch rev: 4177 Checksum: 289
/EX SB KEPS @ AMSAT $ORB10301.D Orbital Elements 10301.MICROS
HR AMSAT ORBITAL ELEMENTS FOR THE MICROSATS FROM WA5QGD FORT WORTH,TX October 28, 2010 BID: ORB10301.D TO ALL RADIO AMATEURS BT
Satellite: UO-11 Catalog number: 14781 Epoch time: 10300.75342183 Element set: 0376 Inclination: 098.0390 deg RA of node: 352.7764 deg Eccentricity: 0.0009147 Arg of perigee: 164.1572 deg Mean anomaly: 195.9905 deg Mean motion: 14.79849878 rev/day Decay rate: 3.0e-07 rev/day^2 Epoch rev: 43141 Checksum: 316
Satellite: AO-16 Catalog number: 20439 Epoch time: 10301.79742930 Element set: 29 Inclination: 098.3505 deg RA of node: 254.5613 deg Eccentricity: 0.0011591 Arg of perigee: 126.5263 deg Mean anomaly: 233.6991 deg Mean motion: 14.31880226 rev/day Decay rate: 4.2e-07 rev/day^2 Epoch rev: 8450 Checksum: 282
Satellite: LO-19 Catalog number: 20442 Epoch time: 10301.84364414 Element set: 939 Inclination: 098.3130 deg RA of node: 259.8718 deg Eccentricity: 0.0012739 Arg of perigee: 121.7305 deg Mean anomaly: 238.5120 deg Mean motion: 14.32109553 rev/day Decay rate: 3.8e-07 rev/day^2 Epoch rev: 8468 Checksum: 289
Satellite: AO-27 Catalog number: 22825 Epoch time: 10300.88085828 Element set: 0661 Inclination: 098.5011 deg RA of node: 245.4900 deg Eccentricity: 0.0007541 Arg of perigee: 237.7447 deg Mean anomaly: 122.3019 deg Mean motion: 14.29313392 rev/day Decay rate: 8.0e-07 rev/day^2 Epoch rev: 89100 Checksum: 283
Satellite: IO-26 Catalog number: 22826 Epoch time: 10300.85250134 Element set: 398 Inclination: 098.4953 deg RA of node: 246.0154 deg Eccentricity: 0.0008201 Arg of perigee: 230.3980 deg Mean anomaly: 129.6488 deg Mean motion: 14.29571112 rev/day Decay rate: 3.2e-07 rev/day^2 Epoch rev: 89111 Checksum: 283
Satellite: GO-32 Catalog number: 25397 Epoch time: 10300.55590535 Element set: 0319 Inclination: 098.3167 deg RA of node: 300.7409 deg Eccentricity: 0.0000534 Arg of perigee: 188.0784 deg Mean anomaly: 172.0411 deg Mean motion: 14.23187859 rev/day Decay rate: -1.6e-07 rev/day^2 Epoch rev: 63887 Checksum: 305
Satellite: NO-44 Catalog number: 26931 Epoch time: 10300.84842831 Element set: 592 Inclination: 067.0530 deg RA of node: 222.1739 deg Eccentricity: 0.0005628 Arg of perigee: 270.3188 deg Mean anomaly: 089.7249 deg Mean motion: 14.29618257 rev/day Decay rate: 1.35e-06 rev/day^2 Epoch rev: 47371 Checksum: 309
Satellite: SO-50 Catalog number: 27607 Epoch time: 10301.61448115 Element set: 304 Inclination: 064.5581 deg RA of node: 311.2303 deg Eccentricity: 0.0045303 Arg of perigee: 021.9147 deg Mean anomaly: 338.3881 deg Mean motion: 14.71594408 rev/day Decay rate: 8.3e-07 rev/day^2 Epoch rev: 42201 Checksum: 258
Satellite: CO-55 Catalog number: 27844 Epoch time: 10301.55293538 Element set: 966 Inclination: 098.7101 deg RA of node: 308.6233 deg Eccentricity: 0.0009948 Arg of perigee: 142.0283 deg Mean anomaly: 218.1605 deg Mean motion: 14.20740927 rev/day Decay rate: 1.12e-06 rev/day^2 Epoch rev: 38002 Checksum: 288
Satellite: CO-57 Catalog number: 27848 Epoch time: 10300.75686843 Element set: 913 Inclination: 098.7155 deg RA of node: 306.9596 deg Eccentricity: 0.0009645 Arg of perigee: 148.6384 deg Mean anomaly: 211.5372 deg Mean motion: 14.20530353 rev/day Decay rate: 1.18e-06 rev/day^2 Epoch rev: 37986 Checksum: 336
Satellite: AO-51 Catalog number: 28375 Epoch time: 10300.94023427 Element set: 0811 Inclination: 098.0736 deg RA of node: 286.9628 deg Eccentricity: 0.0085106 Arg of perigee: 054.4338 deg Mean anomaly: 306.4756 deg Mean motion: 14.40705608 rev/day Decay rate: 5.0e-07 rev/day^2 Epoch rev: 33262 Checksum: 295
Satellite: GENESAT1 Catalog number: 29655 Epoch time: 10216.61700559 Element set: 226 Inclination: 040.0059 deg RA of node: 067.3006 deg Eccentricity: 0.0005079 Arg of perigee: 297.8744 deg Mean anomaly: 064.7087 deg Mean motion: 16.44862838 rev/day Decay rate: 1.0637092e-01 rev/day^2 Epoch rev: 20777 Checksum: 320
Satellite: CP3 Catalog number: 31129 Epoch time: 10300.63669984 Element set: 0709 Inclination: 097.9263 deg RA of node: 333.0318 deg Eccentricity: 0.0102126 Arg of perigee: 182.3873 deg Mean anomaly: 177.6838 deg Mean motion: 14.52322383 rev/day Decay rate: 1.5e-07 rev/day^2 Epoch rev: 18708 Checksum: 304
Satellite: CO-65 Catalog number: 32785 Epoch time: 10301.67366295 Element set: 821 Inclination: 097.8809 deg RA of node: 004.6466 deg Eccentricity: 0.0014376 Arg of perigee: 206.9398 deg Mean anomaly: 153.1121 deg Mean motion: 14.81748048 rev/day Decay rate: 3.34e-06 rev/day^2 Epoch rev: 13525 Checksum: 316
Satellite: KKS-1 Catalog number: 33493 Epoch time: 10301.75172471 Element set: 985 Inclination: 098.1007 deg RA of node: 062.5093 deg Eccentricity: 0.0021083 Arg of perigee: 070.5071 deg Mean anomaly: 289.8420 deg Mean motion: 14.81170834 rev/day Decay rate: 9.52e-06 rev/day^2 Epoch rev: 9525 Checksum: 285
Satellite: SOHLA-1 Catalog number: 33496 Epoch time: 10300.73359219 Element set: 240 Inclination: 098.0687 deg RA of node: 048.1604 deg Eccentricity: 0.0007031 Arg of perigee: 134.3738 deg Mean anomaly: 225.8068 deg Mean motion: 14.69527050 rev/day Decay rate: 9.6e-07 rev/day^2 Epoch rev: 9434 Checksum: 292
Satellite: TISAT-1 Catalog number: 36799 Epoch time: 10301.70188725 Element set: 259 Inclination: 098.1338 deg RA of node: 002.3570 deg Eccentricity: 0.0014505 Arg of perigee: 307.8039 deg Mean anomaly: 052.1857 deg Mean motion: 14.80211629 rev/day Decay rate: 6.31e-06 rev/day^2 Epoch rev: 1606 Checksum: 283
Satellite: STUDSAT Catalog number: 36801 Epoch time: 10300.79422610 Element set: 83 Inclination: 098.1361 deg RA of node: 001.3424 deg Eccentricity: 0.0013334 Arg of perigee: 299.1348 deg Mean anomaly: 060.8530 deg Mean motion: 14.79751442 rev/day Decay rate: 1.596e-05 rev/day^2 Epoch rev: 1592 Checksum: 268
/EX SB KEPS @ AMSAT $ORB10301.W Orbital Elements 10301.WEATHER
HR AMSAT ORBITAL ELEMENTS FOR WEATHER SATELLITES FROM WA5QGD FORT WORTH,TX October 28, 2010 BID: ORB10301.W TO ALL RADIO AMATEURS BT
Satellite: NOAA-10 Catalog number: 16969 Epoch time: 10301.19533156 Element set: 255 Inclination: 098.6449 deg RA of node: 328.8448 deg Eccentricity: 0.0012052 Arg of perigee: 179.6802 deg Mean anomaly: 180.4383 deg Mean motion: 14.27431489 rev/day Decay rate: -1.3e-07 rev/day^2 Epoch rev: 25455 Checksum: 309
Satellite: NOAA-11 Catalog number: 19531 Epoch time: 10301.32459719 Element set: 263 Inclination: 098.7663 deg RA of node: 028.0589 deg Eccentricity: 0.0012033 Arg of perigee: 125.5519 deg Mean anomaly: 234.6786 deg Mean motion: 14.14938940 rev/day Decay rate: -1.77e-06 rev/day^2 Epoch rev: 13996 Checksum: 318
Satellite: NOAA-12 Catalog number: 21263 Epoch time: 10301.27793802 Element set: 758 Inclination: 098.7632 deg RA of node: 314.4112 deg Eccentricity: 0.0012900 Arg of perigee: 136.9840 deg Mean anomaly: 223.2349 deg Mean motion: 14.25662967 rev/day Decay rate: 8.9e-07 rev/day^2 Epoch rev: 1136 Checksum: 286
Satellite: MET-3/5 Catalog number: 21655 Epoch time: 10300.66984241 Element set: 949 Inclination: 082.5598 deg RA of node: 215.0253 deg Eccentricity: 0.0014323 Arg of perigee: 023.0476 deg Mean anomaly: 337.1309 deg Mean motion: 13.17023411 rev/day Decay rate: 5.1e-07 rev/day^2 Epoch rev: 92311 Checksum: 265
Satellite: MET-2/21 Catalog number: 22782 Epoch time: 10301.56527721 Element set: 923 Inclination: 082.5456 deg RA of node: 146.6447 deg Eccentricity: 0.0023286 Arg of perigee: 031.6473 deg Mean anomaly: 328.6083 deg Mean motion: 13.83649386 rev/day Decay rate: 3.3e-07 rev/day^2 Epoch rev: 86652 Checksum: 312
